Regional Weather Roundup
Issued by NWS Cleveland, OH

Home | Current Version | Previous Version | Graphics & Text | Print | Product List | Glossary On
Versions: 1 2 3 4 5 6 7 8 9 10 11 12 13 14 15 16 17 18 19 20 21 22 23 24 25 26 27 28 29 30 31 32 33 34 35 36 37 38 39 40 41 42 43 44 45 46 47 48 49 50
000
ASUS41 KCLE 271310
RWRCLE
OHIO REGIONAL WEATHER ROUNDUP
NATIONAL WEATHER SERVICE WILMINGTON, OH
900 AM EDT THU JUL 27 2017

NOTE: "FAIR" INDICATES FEW OR NO CLOUDS BELOW 12,000 FEET WITH NO
SIGNIFICANT WEATHER AND/OR OBSTRUCTIONS TO VISIBILITY.

OHZ001>008-015>018-024>027-034-035-043-044-271400-
   NORTHWEST OHIO

CITY           SKY/WX    TMP DP  RH WIND       PRES   REMARKS
DEFIANCE       CLOUDY    71  66  84 VRB3      29.93S
FINDLAY        FAIR      73  65  75 SE7       29.93F
TOLEDO EXPRESS FAIR      72  67  84 CALM      29.94S
TOLEDO EXEC    FAIR      72  67  84 CALM      29.95F
LIMA           FAIR      73  67  81 S8        29.95F
$$

OHZ009>014-019>023-028>033-038-089-271400-
   NORTHEAST OHIO

CITY           SKY/WX    TMP DP  RH WIND       PRES   REMARKS
CLE-HOPKINS    CLOUDY    72  65  78 CALM      29.99F
CLE-LAKEFRONT  FAIR      72  62  71 S6        29.96F
CUY CO. ARPT   CLOUDY    72  64  78 S6        29.99S
LORAIN-ELYRIA  FAIR      67  61  81 S3        29.98F
ASHTABULA      FAIR      68  66  93 SW6       30.00S
AKRON-CANTON   PTSUNNY   72  63  73 S6        30.00S
WOOSTER        FAIR      68  66  93 S3        30.00S
MANSFIELD      FAIR      71  63  75 S5        29.99S
YOUNGSTOWN     CLOUDY    69  65  86 SE3       30.00S
$$

OHZ042-051>053-060>062-070>072-077>081-271400-
  SOUTHWEST OHIO

CITY           SKY/WX    TMP DP  RH WIND       PRES   REMARKS
CINC-COVINGTON CLOUDY    75  75 100 CALM      29.98S
CINC-LUNKEN    PTSUNNY   73  73 100 CALM      29.97F
HAMILTON       CLOUDY    76  73  91 CALM      29.98R
DAYTON         PTSUNNY   74  67  78 S5        29.98R
WRIGHT-PAT AFB LGT RAIN  73  68  84 CALM      29.96S
DAYTON GENERAL PTSUNNY   74  68  81 SW5       29.97S
WILMINGTON     FAIR      73  71  93 SW8       29.98S
$$

OHZ036-037-039>041-045>050-054>059-063>069-073>076-082>088-271400-
  CENTRAL AND SOUTHEAST OHIO

CITY           SKY/WX    TMP DP  RH WIND       PRES   REMARKS
COLUMBUS       CLOUDY    74  65  73 SE6       29.97S
OSU AIRPORT    FAIR      74  66  76 SE6       29.97F
BOLTON FIELD   SUNNY     72  64  78 CALM      29.98F
RICKENBACK AFB FAIR      71  66  84 SE3       29.96F
NEWARK         PTSUNNY   69  65  86 CALM      29.98S
MARION         FAIR      71  65  81 S6        29.98S
LANCASTER      FAIR      72  66  81 SE5       29.98F
ZANESVILLE     PTSUNNY   69  64  84 CALM      30.00R
NEW PHILLY     FAIR      69  66  90 CALM      30.00S
$$



USA.gov is the U.S. government's official web portal to all federal, state and local government web resources and services.